Regional Weather Roundup
Issued by NWS

Home | Current Version | Previous Version | Text Only | Print | Product List | Glossary On
Versions: 1 2 3 4 5 6 7 8 9 10 11 12 13 14 15 16 17 18 19 20 21 22 23 24 25 26 27 28 29 30 31 32 33 34 35 36 37 38 39 40 41 42 43 44 45 46 47 48 49 50
000
ASUS44 KFWD 221115
RWRTX
NORTH TEXAS HOURLY WEATHER ROUNDUP
NATIONAL WEATHER SERVICE FORT WORTH TX
600 AM CDT FRI MAY 22 2015

NOTE: "FAIR" INDICATES FEW OR NO CLOUDS BELOW 12,000 FEET WITH NO
SIGNIFICANT WEATHER AND/OR OBSTRUCTIONS TO VISIBILITY.

TXZ118-119-221200-
DALLAS/FORT WORTH METROPLEX

CITY           SKY/WX    TMP DP  RH WIND       PRES   REMARKS
DFW AIRPORT    CLOUDY    59  58  96 E8        30.14R
DALLAS LOVE    CLOUDY    61  58  90 SE12      30.15R
FTW MEACHAM    CLOUDY    61  60  97 E8        30.13R FOG
DAL-EXECUTIVE  CLOUDY    60  57  89 E12       30.14S
FTW-ALLIANCE   DRIZZLE   60  59  96 E9        30.14R FOG
FTW-NAS-JRB    CLOUDY    61  60  97 SE7       30.14R FOG
FTW-SPINKS     CLOUDY    61  58  91 CALM      30.15S
ARLINGTON      CLOUDY    63  57  81 E9        30.14R
GRAND PRAIRIE  CLOUDY    61  61 100 E5        30.15S
ADDISON        CLOUDY    61  57  88 E13       30.15F
MESQUITE       CLOUDY    60  58  92 E7        30.16S
LANCASTER      CLOUDY    60  56  86 E5        30.16S
$$

TXZ091>094-102>105-117-120-121-131>134-221200-
NORTH CENTRAL TEXAS

CITY           SKY/WX    TMP DP  RH WIND       PRES   REMARKS
SHRMAN/DENISON CLOUDY    60  57  91 E12       30.19R
GAINESVILLE    CLOUDY    60  56  87 E8        30.18S
BOWIE          CLOUDY    59  59 100 E5        30.14S
BRIDGEPORT     CLOUDY    60  60 100 SE6       30.15S FOG
DECATUR        CLOUDY    59  58  97 E10       30.14S
DENTON         CLOUDY    62  57  83 E9        30.15R
MCKINNEY       CLOUDY    60  56  86 SE8       30.16R
GREENVILLE     CLOUDY    59  55  88 E6        30.18S
ROCKWALL       CLOUDY    60  58  94 E9        30.15R
TERRELL        CLOUDY    60  57  89 E10       30.17R
WAXAHACHIE     CLOUDY    60  60  99 E6        30.15S
CLEBURNE       CLOUDY    59  59 100 E7        30.15R FOG
GRANBURY         N/A     62  59  93 E9        30.14R
$$

TXZ083>090-098>101-113>116-127>130-139>142-154-155-221200-
WESTERN NORTH TEXAS

CITY           SKY/WX    TMP DP  RH WIND       PRES   REMARKS
WICHITA FALLS  CLOUDY    57  55  93 E13       30.13S
WF-KICKAPOO    CLOUDY    60  56  88 E6        30.15R
VERNON         CLOUDY    59  53  81 NE5       30.17R
ABILENE        CLOUDY    59  57  93 SE8       30.11R FOG
ABILENE-DYESS  CLOUDY    59  56  90 SE7       30.09S FOG
BRECKENRIDGE   CLOUDY    61  60  95 SE5       30.11R
GRAHAM         CLOUDY    59  59 100 E6        30.10F FOG
MINERAL WELLS  CLOUDY    60  59  96 SE9       30.11S FOG
STEPHENVILLE   CLOUDY    60  58  94 SE5       30.15R
COMANCHE       CLOUDY    59  59 100 SE7       30.12R
BROWNWOOD      CLOUDY    59  59 100 SE6       30.11S
COLEMAN        CLOUDY    59  59 100 SE7       30.11S
BRADY          CLOUDY    57  57 100 E7        30.09S FOG
$$

TXZ143>147-156>162-174-175-221200-
CENTRAL TEXAS

CITY           SKY/WX    TMP DP  RH WIND       PRES   REMARKS
WACO           CLOUDY    61  60  97 E7        30.13R
WACO-MCGREGOR  CLOUDY    63  57  82 E8        30.14R
HILLSBORO      DRIZZLE   60  58  91 E7        30.14R
CORSICANA      CLOUDY    61  59  93 E10       30.15R
MEXIA          CLOUDY    60  59  96 E7        30.13R
HEARNE         CLOUDY    63  63  98 NE3       30.12S
CAMERON        CLOUDY    64  64  98 E6        30.11S FOG
TEMPLE         CLOUDY    63  59  88 E9        30.10S
KILLEEN        CLOUDY    63  61  94 NE6       30.10S FOG
KILLEEN-SKYLRK CLOUDY    63  57  82 E6        30.10F
FORT HOOD      CLOUDY    63  61  94 E6        30.09F FOG
GATESVILLE     MOCLDY    63  63 100 CALM      30.14S FOG
HAMILTON       CLOUDY    61  61 100 SE5       30.13S FOG
LAMPASAS       CLOUDY    60  60  98 E5        30.09F FOG
$$

TXZ095>097-106>112-122>126-135>138-148>153-164>167-221200-
EAST TEXAS

CITY           SKY/WX    TMP DP  RH WIND       PRES   REMARKS
PARIS          CLOUDY    55  52  88 E8        30.22R
SULPHUR SPRNGS CLOUDY    58  55  91 E7        30.21R
MOUNT PLEASANT PTCLDY    55  52  90 E6        30.22S
GILMER         CLOUDY    56  52  85 E7        30.20S
MINEOLA        CLOUDY    59  57  94 E5        30.18F
TYLER          CLOUDY    59  53  80 E12       30.16S
LONGVIEW       PTCLDY    56  52  86 E5        30.19S
MARSHALL       PTCLDY    56  53  90 CALM      30.22F
ATHENS         CLOUDY    59  55  88 E8        30.14R
PALESTINE      CLOUDY    60  59  96 E7        30.17S
JACKSONVILLE   CLOUDY    58  57  96 NE7       30.18R FOG
HENDERSON      CLOUDY    56  54  91 NE10      30.19S
NACOGDOCHES    CLOUDY    57  54  88 E6        30.17R
LUFKIN         CLOUDY    62  57  83 NE7       30.16R
$$

SUPPLEMENTAL OBSERVATIONS (CENTRAL)

CITY           SKY/WX    TMP DP  RH WIND       PRES   REMARKS
LAKE TEXOMA      N/A     61  57  88 SE8         N/A
CADDO GRASSLND   N/A     57  52  82 SE5         N/A
PAT MAYSE LAKE   N/A     55  54  94 E3          N/A
GREENVILLE       N/A     59  54  82 E9          N/A
CEDAR HILL       N/A     61  55  82 NE3         N/A
ATHENS           N/A     61  57  88 E7          N/A
MCGREGOR         N/A    N/A N/A N/A E5          N/A
TEMPLE           N/A    N/A N/A N/A E8          N/A
$$

SUPPLEMENTAL OBSERVATIONS (WEST)

CITY           SKY/WX    TMP DP  RH WIND       PRES   REMARKS
MILLERS CREEK    N/A     57  55  94 SE3         N/A
POSSUM KINGDOM   N/A     61  57  88 SE9         N/A
LBJ GRASSLAND    N/A     61  57  88 E6G17       N/A
GRANBURY         N/A     61  57  88 E8          N/A
HAMBY            N/A     57  54  88 SE6         N/A
$$

SUPPLEMENTAL OBSERVATIONS (EAST)

CITY           SKY/WX    TMP DP  RH WIND       PRES   REMARKS
TEXARKANA        N/A     52  48  87 NE2         N/A
LINDEN           N/A     54  52  94 CALM        N/A
GILMER           N/A     55  50  82 E5          N/A
HENDERSON        N/A     57  54  88 E9          N/A
LUFKIN           N/A     59  54  82 MISG        N/A
N SABINE NF      N/A     57  54  88 MISG        N/A
$$

SUPPLEMENTAL OBSERVATIONS ARE A COLLECTION OF AUTOMATED INSTRUMENTS
THAT ARE MAINTAINED BY A VARIETY OF FEDERAL AND STATE AGENCIES.
CERTAIN ELEMENTS...SUCH AS HUMIDITY VALUES AND SUSTAINED WIND
SPEEDS...MAY BE APPROXIMATED.




USA.gov is the U.S. government's official web portal to all federal, state and local government web resources and services.